,,,PA_Meas_PMT16A,,PR_Meas_QMR101_102,,RH_Meas_QMH101,,SR_Meas_QMS101,,TA_Meas_QMH101,,GenWind,,GenWind,
date,time,status,PA,status,PR,status,RH,status,SR,status,TA,status,DirAvg,status,SpdAvg,
2011-06-11, 00:00:05,VALID,999.273,VALID,0,VALID,93.913,VALID,0,VALID,24.1305,VALID,176,VALID,0,
2011-06-11, 00:01:05,VALID,999.221,VALID,0.5,VALID,93.9206,VALID,0,VALID,24.1305,VALID,176,VALID,0,
2011-06-11, 00:02:05,VALID,999.204,VALID,0,VALID,93.913,VALID,0,VALID,24.15,VALID,127,VALID,0.721484,
2011-06-11, 00:03:05,VALID,999.226,VALID,0,VALID,93.913,VALID,0,VALID,24.1092,VALID,104,VALID,0.520312,
2011-06-11, 00:04:05,VALID,999.215,VALID,0,VALID,93.9206,VALID,0,VALID,24.1092,VALID,104,VALID,0.349609,
2011-06-11, 00:05:05,VALID,999.149,VALID,0,VALID,93.9054,VALID,0,VALID,24.1287,VALID,104,VALID,0.7125,
2011-06-11, 00:06:05,VALID,999.105,VALID,0,VALID,93.9054,VALID,0,VALID,24.111,VALID,103,VALID,1.13828,
2011-06-11, 00:07:05,VALID,999.123,VALID,0,VALID,93.8977,VALID,0,VALID,24.1305,VALID,76,VALID,0.967969,
2011-06-11, 00:08:05,VALID,999.09,VALID,0,VALID,93.9054,VALID,0.112286,VALID,24.111,VALID,59,VALID,0.835547,
2011-06-11, 00:09:05,VALID,999.052,VALID,0,VALID,93.9283,VALID,0,VALID,24.0897,VALID,59,VALID,0.844531,
2011-06-11, 00:10:05,VALID,999.005,VALID,0,VALID,93.913,VALID,0,VALID,24.0915,VALID,69,VALID,0.789063,
2011-06-11, 00:11:05,VALID,998.966,VALID,0,VALID,93.8977,VALID,0.112286,VALID,24.0701,VALID,84,VALID,0.760938,
2011-06-11, 00:12:05,VALID,998.905,VALID,0,VALID,93.9054,VALID,0,VALID,24.0506,VALID,84,VALID,0.827344,
2011-06-11, 00:13:05,VALID,998.931,VALID,0,VALID,93.8901,VALID,0,VALID,24.0915,VALID,84,VALID,0.471094,
2011-06-11, 00:14:05,VALID,998.955,VALID,0,VALID,93.9054,VALID,0,VALID,24.0915,VALID,84,VALID,0.319531,
2011-06-11, 00:15:05,VALID,999.052,VALID,0,VALID,93.8901,VALID,0,VALID,24.0915,VALID,84,VALID,0,
2011-06-11, 00:16:05,VALID,999.261,VALID,0,VALID,93.8977,VALID,0,VALID,24.111,VALID,301,VALID,1.67344,
2011-06-11, 00:17:05,VALID,999.324,VALID,0.5,VALID,93.8977,VALID,0,VALID,24.111,VALID,306,VALID,1.62695,
2011-06-11, 00:18:05,VALID,999.385,VALID,0,VALID,93.8596,VALID,0,VALID,24.1092,VALID,242,VALID,1.41328,
2011-06-11, 00:19:05,VALID,999.177,VALID,0.5,VALID,93.8977,VALID,0,VALID,24.0701,VALID,220,VALID,5.00625,
2011-06-11, 00:20:05,VALID,999.137,VALID,0,VALID,93.8901,VALID,0,VALID,24.1696,VALID,224,VALID,5.07227,
2011-06-11, 00:21:05,VALID,999.152,VALID,0,VALID,93.8748,VALID,0,VALID,24.2263,VALID,253,VALID,2.42305,
2011-06-11, 00:22:05,VALID,999.22,VALID,0,VALID,93.8596,VALID,0,VALID,24.2263,VALID,300,VALID,2.74844,
2011-06-11, 00:23:05,VALID,999.176,VALID,0,VALID,93.8443,VALID,0,VALID,24.2067,VALID,305,VALID,2.1793,
2011-06-11, 00:24:05,VALID,999.138,VALID,0.5,VALID,93.8596,VALID,0,VALID,24.1891,VALID,257,VALID,2.85469,
2011-06-11, 00:25:05,VALID,999.208,VALID,0.5,VALID,93.852,VALID,0,VALID,24.15,VALID,267,VALID,3.13906,
2011-06-11, 00:26:05,VALID,999.22,VALID,0.5,VALID,93.852,VALID,0,VALID,24.072,VALID,279,VALID,2.74258,
2011-06-11, 00:27:05,VALID,999.165,VALID,0.5,VALID,93.852,VALID,0,VALID,23.9939,VALID,262,VALID,4.16406,
2011-06-11, 00:28:05,VALID,999.154,VALID,0.5,VALID,93.8443,VALID,0,VALID,23.9549,VALID,244,VALID,3.49883,
2011-06-11, 00:29:05,VALID,999.124,VALID,0.5,VALID,93.8443,VALID,0,VALID,23.8573,VALID,250,VALID,4.42461,
2011-06-11, 00:30:05,VALID,999.137,VALID,0,VALID,93.8214,VALID,0,VALID,23.8006,VALID,271,VALID,3.76016,
2011-06-11, 00:31:05,VALID,999.166,VALID,0.5,VALID,93.8291,VALID,0,VALID,23.7207,VALID,226,VALID,2.35,
2011-06-11, 00:32:05,VALID,999.1,VALID,0,VALID,93.8138,VALID,0,VALID,23.6622,VALID,251,VALID,4.47852,
2011-06-11, 00:33:05,VALID,999.142,VALID,1,VALID,93.7909,VALID,0,VALID,23.6232,VALID,248,VALID,2.69492,
2011-06-11, 00:34:05,VALID,999.102,VALID,0.5,VALID,93.7909,VALID,0,VALID,23.5841,VALID,242,VALID,3.63242,
2011-06-11, 00:35:05,VALID,999.051,VALID,0.5,VALID,93.7604,VALID,0,VALID,23.5646,VALID,239,VALID,5.42422,
2011-06-11, 00:36:05,VALID,999.059,VALID,0.5,VALID,93.7528,VALID,0,VALID,23.5646,VALID,248,VALID,3.52891,
2011-06-11, 00:37:05,VALID,999.071,VALID,0.5,VALID,93.7451,VALID,0,VALID,23.5256,VALID,250,VALID,2.47031,
2011-06-11, 00:38:05,VALID,999.072,VALID,0.5,VALID,93.7604,VALID,0,VALID,23.5256,VALID,214,VALID,2.69492,
2011-06-11, 00:39:05,VALID,999.062,VALID,0.5,VALID,93.7299,VALID,0,VALID,23.5256,VALID,255,VALID,3.67461,
2011-06-11, 00:40:05,VALID,999.046,VALID,0.5,VALID,93.7299,VALID,0,VALID,23.5256,VALID,238,VALID,5.05586,
2011-06-11, 00:41:05,VALID,999.095,VALID,0,VALID,93.7375,VALID,0,VALID,23.5256,VALID,231,VALID,2.15469,
2011-06-11, 00:42:05,VALID,999.061,VALID,0.5,VALID,93.7375,VALID,0,VALID,23.5061,VALID,224,VALID,3.91953,
2011-06-11, 00:43:05,VALID,999.111,VALID,0,VALID,93.6994,VALID,0,VALID,23.5061,VALID,236,VALID,3.94727,
2011-06-11, 00:44:05,VALID,999.087,VALID,0,VALID,93.707,VALID,0,VALID,23.5274,VALID,224,VALID,4.34062,
2011-06-11, 00:45:05,VALID,999.114,VALID,0.5,VALID,93.6917,VALID,0,VALID,23.5256,VALID,216,VALID,3.04258,
2011-06-11, 00:46:05,VALID,999.047,VALID,0.5,VALID,93.6688,VALID,0,VALID,23.5061,VALID,206,VALID,3.48711,
2011-06-11, 00:47:05,VALID,999.103,VALID,0,VALID,93.6536,VALID,0,VALID,23.5256,VALID,217,VALID,4.2082,
2011-06-11, 00:48:05,VALID,999.084,VALID,0,VALID,93.6383,VALID,0,VALID,23.5451,VALID,220,VALID,3.91836,
2011-06-11, 00:49:05,VALID,999.102,VALID,0.5,VALID,93.6154,VALID,0,VALID,23.5451,VALID,216,VALID,3.56758,
2011-06-11, 00:50:05,VALID,999.06,VALID,0,VALID,93.562,VALID,0,VALID,23.5451,VALID,209,VALID,4.42188,
2011-06-11, 00:51:05,VALID,999.031,VALID,0.5,VALID,93.5315,VALID,0,VALID,23.5451,VALID,208,VALID,3.44531,
2011-06-11, 00:52:05,VALID,999.045,VALID,0.5,VALID,93.5086,VALID,0,VALID,23.5043,VALID,220,VALID,3.2418,
2011-06-11, 00:53:05,VALID,999.052,VALID,0.5,VALID,93.4705,VALID,0,VALID,23.5256,VALID,209,VALID,4.125,
2011-06-11, 00:54:05,VALID,999.027,VALID,0.5,VALID,93.4476,VALID,0,VALID,23.5256,VALID,210,VALID,4.97188,
2011-06-11, 00:55:05,VALID,999.015,VALID,0.5,VALID,93.44,VALID,0,VALID,23.5256,VALID,203,VALID,4.00859,
2011-06-11, 00:56:05,VALID,999.042,VALID,0,VALID,93.4247,VALID,0,VALID,23.5451,VALID,200,VALID,3.23125,
2011-06-11, 00:57:05,VALID,999.02,VALID,0.5,VALID,93.4247,VALID,0,VALID,23.5451,VALID,223,VALID,4.36562,
2011-06-11, 00:58:05,VALID,998.995,VALID,0.5,VALID,93.4171,VALID,0,VALID,23.5451,VALID,220,VALID,3.58203,
2011-06-11, 00:59:05,VALID,998.993,VALID,0,VALID,93.4323,VALID,0,VALID,23.5646,VALID,204,VALID,3.81992,
2011-06-11, 01:00:05,VALID,999.026,VALID,0.5,VALID,93.44,VALID,0,VALID,23.5451,VALID,220,VALID,3.97461,
2011-06-11, 01:01:05,VALID,999.007,VALID,0,VALID,93.4323,VALID,0,VALID,23.5646,VALID,225,VALID,3.65156,
2011-06-11, 01:02:05,VALID,999.027,VALID,0.5,VALID,93.4247,VALID,0,VALID,23.5841,VALID,210,VALID,3.32695,
2011-06-11, 01:03:05,VALID,998.979,VALID,0,VALID,93.4171,VALID,0,VALID,23.5841,VALID,210,VALID,1.90977,
2011-06-11, 01:04:05,VALID,998.943,VALID,0,VALID,93.4171,VALID,0,VALID,23.5646,VALID,210,VALID,1.60859,
2011-06-11, 01:05:05,VALID,998.861,VALID,0.5,VALID,93.4171,VALID,0,VALID,23.5451,VALID,188,VALID,4.62148,
2011-06-11, 01:06:05,VALID,998.914,VALID,0,VALID,93.3942,VALID,0,VALID,23.5451,VALID,206,VALID,3.13047,
2011-06-11, 01:07:05,VALID,998.866,VALID,0,VALID,93.3866,VALID,0,VALID,23.5841,VALID,189,VALID,2.5043,
2011-06-11, 01:08:05,VALID,998.842,VALID,0.5,VALID,93.3713,VALID,0,VALID,23.5628,VALID,184,VALID,3.25703,
2011-06-11, 01:09:05,VALID,998.802,VALID,0,VALID,93.3484,VALID,0,VALID,23.5646,VALID,193,VALID,3.96367,
2011-06-11, 01:10:05,VALID,998.803,VALID,0,VALID,93.3255,VALID,0,VALID,23.6232,VALID,183,VALID,3.33633,
2011-06-11, 01:11:05,VALID,998.785,VALID,0,VALID,93.2721,VALID,0,VALID,23.6019,VALID,189,VALID,3.77734,
2011-06-11, 01:12:05,VALID,998.771,VALID,0,VALID,93.2416,VALID,0,VALID,23.6427,VALID,186,VALID,3.24883,
2011-06-11, 01:13:05,VALID,998.783,VALID,0,VALID,93.2263,VALID,0,VALID,23.6427,VALID,171,VALID,3.25039,
2011-06-11, 01:14:05,VALID,998.738,VALID,0,VALID,93.2111,VALID,0,VALID,23.6427,VALID,178,VALID,3.70625,
2011-06-11, 01:15:05,VALID,998.726,VALID,0,VALID,93.2034,VALID,0,VALID,23.664,VALID,173,VALID,3.05938,
2011-06-11, 01:16:05,VALID,998.708,VALID,0.5,VALID,93.1424,VALID,0,VALID,23.6427,VALID,185,VALID,3.38945,
2011-06-11, 01:17:05,VALID,998.675,VALID,0,VALID,93.1271,VALID,0,VALID,23.6232,VALID,175,VALID,3.66641,
2011-06-11, 01:18:05,VALID,998.624,VALID,0,VALID,93.1119,VALID,0,VALID,23.6427,VALID,167,VALID,2.69805,
2011-06-11, 01:19:05,VALID,998.598,VALID,0,VALID,93.1271,VALID,0,VALID,23.6835,VALID,155,VALID,2.34063,
2011-06-11, 01:20:05,VALID,998.559,VALID,0,VALID,93.1195,VALID,0,VALID,23.6427,VALID,162,VALID,2.69297,
2011-06-11, 01:21:05,VALID,998.551,VALID,0,VALID,93.1195,VALID,0,VALID,23.6427,VALID,152,VALID,2.70703,
2011-06-11, 01:22:05,VALID,998.522,VALID,0,VALID,93.1043,VALID,0,VALID,23.6036,VALID,151,VALID,2.89766,
2011-06-11, 01:23:05,VALID,998.541,VALID,0,VALID,93.0814,VALID,0,VALID,23.5646,VALID,149,VALID,3.20586,
2011-06-11, 01:24:05,VALID,998.499,VALID,0,VALID,93.0356,VALID,0,VALID,23.5646,VALID,150,VALID,2.30898,
2011-06-11, 01:25:05,VALID,998.504,VALID,0,VALID,93.0127,VALID,0,VALID,23.5451,VALID,145,VALID,1.97773,
2011-06-11, 01:26:05,VALID,998.473,VALID,0,VALID,92.9669,VALID,0,VALID,23.5256,VALID,159,VALID,1.89609,
2011-06-11, 01:27:05,VALID,998.478,VALID,0,VALID,92.9288,VALID,0,VALID,23.5061,VALID,161,VALID,1.94023,
2011-06-11, 01:28:05,VALID,998.443,VALID,0,VALID,92.8754,VALID,0,VALID,23.4671,VALID,161,VALID,2.14414,
2011-06-11, 01:29:05,VALID,998.378,VALID,0,VALID,92.8067,VALID,0,VALID,23.4475,VALID,152,VALID,1.56445,
2011-06-11, 01:30:05,VALID,998.377,VALID,0,VALID,92.7609,VALID,0,VALID,23.4475,VALID,171,VALID,1.12773,
2011-06-11, 01:31:05,VALID,998.319,VALID,0,VALID,92.7685,VALID,0,VALID,23.4475,VALID,173,VALID,1.03242,
2011-06-11, 01:32:05,VALID,998.328,VALID,0,VALID,92.7685,VALID,0,VALID,23.4475,VALID,183,VALID,0.726563,
2011-06-11, 01:33:05,VALID,998.337,VALID,0,VALID,92.7685,VALID,0,VALID,23.4298,VALID,200,VALID,0.719922,
2011-06-11, 01:34:05,VALID,998.323,VALID,0.5,VALID,92.7762,VALID,0,VALID,23.4085,VALID,171,VALID,1.27266,
2011-06-11, 01:35:05,VALID,998.322,VALID,0,VALID,92.7609,VALID,0,VALID,23.389,VALID,172,VALID,0.91875,
2011-06-11, 01:36:05,VALID,998.28,VALID,0,VALID,92.6923,VALID,0,VALID,23.3695,VALID,160,VALID,0.715234,
2011-06-11, 01:37:05,VALID,998.254,VALID,0,VALID,92.6388,VALID,0,VALID,23.3695,VALID,153,VALID,0.688672,
2011-06-11, 01:38:05,VALID,998.24,VALID,0,VALID,92.6083,VALID,0,VALID,23.3695,VALID,153,VALID,0.325,
2011-06-11, 01:39:05,VALID,998.197,VALID,0,VALID,92.6083,VALID,0,VALID,23.35,VALID,159,VALID,0.815625,
2011-06-11, 01:40:05,VALID,998.172,VALID,0,VALID,92.5854,VALID,0,VALID,23.3305,VALID,152,VALID,0.862109,
2011-06-11, 01:41:05,VALID,998.117,VALID,0,VALID,92.5549,VALID,0,VALID,23.3305,VALID,152,VALID,0.603125,
2011-06-11, 01:42:05,VALID,998.093,VALID,0,VALID,92.5549,VALID,0,VALID,23.3305,VALID,130,VALID,1.18008,
2011-06-11, 01:43:05,VALID,998.077,VALID,0,VALID,92.5397,VALID,0,VALID,23.35,VALID,116,VALID,1.05234,
2011-06-11, 01:44:05,VALID,998.048,VALID,0,VALID,92.5244,VALID,0,VALID,23.3695,VALID,120,VALID,0.898828,
2011-06-11, 01:45:05,VALID,998.011,VALID,0,VALID,92.4939,VALID,0,VALID,23.35,VALID,125,VALID,0.929688,
2011-06-11, 01:46:05,VALID,997.973,VALID,0,VALID,92.4786,VALID,0,VALID,23.3695,VALID,124,VALID,0.868359,
2011-06-11, 01:47:05,VALID,997.962,VALID,0,VALID,92.4176,VALID,0,VALID,23.3695,VALID,114,VALID,1.16289,
2011-06-11, 01:48:05,VALID,997.949,VALID,0,VALID,92.4252,VALID,0,VALID,23.4103,VALID,110,VALID,1.15352,
2011-06-11, 01:49:05,VALID,997.909,VALID,0,VALID,92.4405,VALID,0,VALID,23.3677,VALID,86,VALID,1.21289,
2011-06-11, 01:50:05,VALID,997.839,VALID,0,VALID,92.4252,VALID,0,VALID,23.389,VALID,81,VALID,1.05625,
2011-06-11, 01:51:05,VALID,997.841,VALID,0,VALID,92.3718,VALID,0,VALID,23.389,VALID,70,VALID,1.34219,
2011-06-11, 01:52:05,VALID,997.813,VALID,0,VALID,92.3184,VALID,0,VALID,23.389,VALID,70,VALID,0.880078,
2011-06-11, 01:53:05,VALID,997.804,VALID,0,VALID,92.2803,VALID,0,VALID,23.3695,VALID,64,VALID,1.15469,
2011-06-11, 01:54:05,VALID,997.767,VALID,0,VALID,92.2574,VALID,0,VALID,23.3695,VALID,56,VALID,1.33008,
2011-06-11, 01:55:05,VALID,997.777,VALID,0,VALID,92.2116,VALID,0,VALID,23.3482,VALID,61,VALID,1.65859,
2011-06-11, 01:56:05,VALID,997.739,VALID,0,VALID,92.1963,VALID,0,VALID,23.3695,VALID,65,VALID,1.41406,
2011-06-11, 01:57:05,VALID,997.822,VALID,0,VALID,92.1734,VALID,0,VALID,23.3695,VALID,45,VALID,1.34609,
2011-06-11, 01:58:05,VALID,997.838,VALID,0,VALID,92.1963,VALID,0,VALID,23.3695,VALID,24,VALID,1.12344,
2011-06-11, 01:59:05,VALID,997.883,VALID,0,VALID,92.2345,VALID,0,VALID,23.3695,VALID,16,VALID,1.50625,
2011-06-11, 02:00:05,VALID,997.884,VALID,0,VALID,92.2955,VALID,0,VALID,23.35,VALID,20,VALID,1.42188,
2011-06-11, 02:01:05,VALID,997.889,VALID,0,VALID,92.3871,VALID,0,VALID,23.35,VALID,36,VALID,1.42344,
2011-06-11, 02:02:05,VALID,997.861,VALID,0,VALID,92.4481,VALID,0,VALID,23.3305,VALID,39,VALID,1.30195,
2011-06-11, 02:03:04,VALID,997.856,VALID,0,VALID,92.4939,VALID,0,VALID,23.3305,VALID,39,VALID,1.54453,
2011-06-11, 02:04:04,VALID,997.845,VALID,0,VALID,92.5549,VALID,0,VALID,23.311,VALID,40,VALID,1.43477,
2011-06-11, 02:05:04,VALID,997.852,VALID,0,VALID,92.6007,VALID,0,VALID,23.2915,VALID,47,VALID,1.59609,
2011-06-11, 02:06:04,VALID,997.815,VALID,0,VALID,92.6007,VALID,0,VALID,23.2915,VALID,37,VALID,0.861328,
2011-06-11, 02:07:04,VALID,997.794,VALID,0,VALID,92.616,VALID,0,VALID,23.2702,VALID,41,VALID,1.10117,
2011-06-11, 02:08:04,VALID,997.762,VALID,0,VALID,92.6465,VALID,0,VALID,23.2915,VALID,39,VALID,0.458594,
2011-06-11, 02:09:04,VALID,997.739,VALID,0,VALID,92.6617,VALID,0,VALID,23.2719,VALID,17,VALID,0.571484,
2011-06-11, 02:10:04,VALID,997.688,VALID,0,VALID,92.6846,VALID,0,VALID,23.2524,VALID,17,VALID,0.557031,
2011-06-11, 02:11:04,VALID,997.673,VALID,0,VALID,92.7075,VALID,0,VALID,23.2524,VALID,17,VALID,0.291016,
2011-06-11, 02:12:04,VALID,997.669,VALID,0,VALID,92.7151,VALID,0,VALID,23.2329,VALID,17,VALID,0.199609,
2011-06-11, 02:13:04,VALID,997.596,VALID,0,VALID,92.7609,VALID,0,VALID,23.2329,VALID,17,VALID,0.140234,
2011-06-11, 02:14:04,VALID,997.57,VALID,0,VALID,92.7762,VALID,0,VALID,23.2134,VALID,17,VALID,0,
2011-06-11, 02:15:04,VALID,997.55,VALID,0,VALID,92.8143,VALID,0,VALID,23.1939,VALID,17,VALID,0.444141,
2011-06-11, 02:16:04,VALID,997.558,VALID,0,VALID,92.8296,VALID,0,VALID,23.2134,VALID,17,VALID,0.33125,
2011-06-11, 02:17:04,VALID,997.558,VALID,0,VALID,92.8677,VALID,0,VALID,23.2134,VALID,17,VALID,0,
2011-06-11, 02:18:04,VALID,997.522,VALID,0,VALID,92.883,VALID,0,VALID,23.2134,VALID,17,VALID,0.155078,
2011-06-11, 02:19:04,VALID,997.506,VALID,0,VALID,92.9059,VALID,0,VALID,23.1939,VALID,48,VALID,0.387891,
2011-06-11, 02:20:04,VALID,997.488,VALID,0,VALID,92.9059,VALID,0,VALID,23.1939,VALID,139,VALID,0.401563,
2011-06-11, 02:21:04,VALID,997.484,VALID,0,VALID,92.9211,VALID,0,VALID,23.2134,VALID,139,VALID,0.207031,
2011-06-11, 02:22:04,VALID,997.487,VALID,0,VALID,92.9135,VALID,0,VALID,23.1921,VALID,141,VALID,0.378906,
2011-06-11, 02:23:04,VALID,997.477,VALID,0,VALID,92.944,VALID,0,VALID,23.2329,VALID,152,VALID,0.848437,
2011-06-11, 02:24:04,VALID,997.469,VALID,0,VALID,92.944,VALID,0,VALID,23.2524,VALID,155,VALID,1.67031,
2011-06-11, 02:25:04,VALID,997.498,VALID,0,VALID,92.9288,VALID,0,VALID,23.2915,VALID,172,VALID,1.44453,
2011-06-11, 02:26:04,VALID,997.48,VALID,0,VALID,92.9059,VALID,0,VALID,23.311,VALID,149,VALID,2.11562,
2011-06-11, 02:27:04,VALID,997.52,VALID,0,VALID,92.8906,VALID,0,VALID,23.3305,VALID,145,VALID,1.27344,
2011-06-11, 02:28:04,VALID,997.534,VALID,0,VALID,92.8525,VALID,0,VALID,23.3305,VALID,148,VALID,0.854688,
2011-06-11, 02:29:04,VALID,997.545,VALID,0,VALID,92.8143,VALID,0,VALID,23.3305,VALID,145,VALID,0.977344,
2011-06-11, 02:30:04,VALID,997.489,VALID,0,VALID,92.7991,VALID,0,VALID,23.3305,VALID,134,VALID,1.23711,
2011-06-11, 02:31:04,VALID,997.524,VALID,0,VALID,92.7685,VALID,0,VALID,23.311,VALID,117,VALID,1.08789,
2011-06-11, 02:32:04,VALID,997.539,VALID,0,VALID,92.7457,VALID,0,VALID,23.311,VALID,105,VALID,1.03477,
2011-06-11, 02:33:04,VALID,997.564,VALID,0,VALID,92.7304,VALID,0,VALID,23.311,VALID,99,VALID,0.932031,
2011-06-11, 02:34:04,VALID,997.616,VALID,0,VALID,92.7228,VALID,0,VALID,23.2915,VALID,78,VALID,0.951563,
2011-06-11, 02:35:04,VALID,997.601,VALID,0,VALID,92.7304,VALID,0,VALID,23.2524,VALID,54,VALID,0.823828,
2011-06-11, 02:36:04,VALID,997.587,VALID,0,VALID,92.7304,VALID,0,VALID,23.2524,VALID,49,VALID,1.04453,
2011-06-11, 02:37:04,VALID,997.606,VALID,0,VALID,92.7457,VALID,0,VALID,23.2312,VALID,50,VALID,1.08711,
2011-06-11, 02:38:04,VALID,997.549,VALID,0,VALID,92.7762,VALID,0,VALID,23.2117,VALID,43,VALID,1.27344,
2011-06-11, 02:39:04,VALID,997.558,VALID,0,VALID,92.8143,VALID,0,VALID,23.2329,VALID,29,VALID,1.20352,
2011-06-11, 02:40:04,VALID,997.573,VALID,0,VALID,92.8372,VALID,0,VALID,23.2329,VALID,21,VALID,1.05195,
2011-06-11, 02:41:04,VALID,997.533,VALID,0,VALID,92.8754,VALID,0,VALID,23.1939,VALID,48,VALID,1.07617,
2011-06-11, 02:42:04,VALID,997.541,VALID,0,VALID,92.883,VALID,0,VALID,23.1726,VALID,48,VALID,0.778906,
2011-06-11, 02:43:04,VALID,997.532,VALID,0,VALID,92.9288,VALID,0,VALID,23.1939,VALID,51,VALID,0.539453,
2011-06-11, 02:44:04,VALID,997.518,VALID,0,VALID,92.944,VALID,0,VALID,23.1744,VALID,51,VALID,0.525,
2011-06-11, 02:45:04,VALID,997.52,VALID,0,VALID,92.9593,VALID,0,VALID,23.1744,VALID,51,VALID,0,
2011-06-11, 02:46:04,VALID,997.52,VALID,0,VALID,92.9593,VALID,0,VALID,23.1549,VALID,51,VALID,0.190234,
2011-06-11, 02:47:04,VALID,997.543,VALID,0,VALID,92.9669,VALID,0,VALID,23.1549,VALID,51,VALID,0,
2011-06-11, 02:48:04,VALID,997.548,VALID,0,VALID,92.9974,VALID,0,VALID,23.1549,VALID,51,VALID,0,
2011-06-11, 02:49:04,VALID,997.6,VALID,0,VALID,93.0127,VALID,0,VALID,23.1159,VALID,51,VALID,0,
2011-06-11, 02:50:04,VALID,997.592,VALID,0,VALID,93.0203,VALID,0,VALID,23.1159,VALID,51,VALID,0,
2011-06-11, 02:51:04,VALID,997.6,VALID,0,VALID,93.0585,VALID,0,VALID,23.1159,VALID,51,VALID,0,
2011-06-11, 02:52:04,VALID,997.608,VALID,0,VALID,93.0814,VALID,0,VALID,23.1354,VALID,51,VALID,0.0792969,
2011-06-11, 02:53:04,VALID,997.651,VALID,0,VALID,93.1424,VALID,0,VALID,23.1354,VALID,51,VALID,0,
2011-06-11, 02:54:04,VALID,997.621,VALID,0,VALID,93.15,VALID,0,VALID,23.1354,VALID,51,VALID,0,
2011-06-11, 02:55:04,VALID,997.642,VALID,0,VALID,93.1729,VALID,0,VALID,23.1354,VALID,51,VALID,0,
2011-06-11, 02:56:04,VALID,997.661,VALID,0,VALID,93.2111,VALID,0,VALID,23.1354,VALID,51,VALID,0,
2011-06-11, 02:57:04,VALID,997.676,VALID,0,VALID,93.2187,VALID,0,VALID,23.1354,VALID,51,VALID,0,
2011-06-11, 02:58:04,VALID,997.705,VALID,0,VALID,93.234,VALID,0,VALID,23.1159,VALID,51,VALID,0,
2011-06-11, 02:59:04,VALID,997.718,VALID,0,VALID,93.2492,VALID,0,VALID,23.1159,VALID,51,VALID,0,
2011-06-11, 03:00:04,VALID,997.723,VALID,0,VALID,93.3103,VALID,0,VALID,23.1159,VALID,52,VALID,0.248437,
2011-06-11, 03:01:04,VALID,997.749,VALID,0,VALID,93.3179,VALID,0,VALID,23.0946,VALID,79,VALID,0.634375,
2011-06-11, 03:02:04,VALID,997.784,VALID,0,VALID,93.3331,VALID,0,VALID,23.1549,VALID,87,VALID,0.8875,
2011-06-11, 03:03:04,VALID,997.819,VALID,0,VALID,93.3789,VALID,0,VALID,23.1549,VALID,82,VALID,0.912109,
2011-06-11, 03:04:04,VALID,997.812,VALID,0,VALID,93.3637,VALID,0,VALID,23.1744,VALID,72,VALID,0.760938,
2011-06-11, 03:05:04,VALID,997.828,VALID,0,VALID,93.3866,VALID,0,VALID,23.1744,VALID,74,VALID,0.971875,
2011-06-11, 03:06:04,VALID,997.835,VALID,0,VALID,93.4018,VALID,0,VALID,23.1939,VALID,72,VALID,1.34453,
2011-06-11, 03:07:04,VALID,997.856,VALID,0,VALID,93.4094,VALID,0,VALID,23.1921,VALID,70,VALID,1.25937,
2011-06-11, 03:08:04,VALID,997.865,VALID,0,VALID,93.3942,VALID,0,VALID,23.2134,VALID,75,VALID,1.14531,
2011-06-11, 03:09:04,VALID,997.856,VALID,0,VALID,93.4018,VALID,0,VALID,23.1921,VALID,75,VALID,1.00039,
2011-06-11, 03:10:04,VALID,997.902,VALID,0,VALID,93.4018,VALID,0,VALID,23.2329,VALID,75,VALID,0.950781,
2011-06-11, 03:11:04,VALID,997.922,VALID,0,VALID,93.3866,VALID,0,VALID,23.1921,VALID,77,VALID,0.6125,
2011-06-11, 03:12:04,VALID,997.947,VALID,0,VALID,93.3866,VALID,0,VALID,23.2117,VALID,89,VALID,0.498437,
2011-06-11, 03:13:04,VALID,997.973,VALID,0,VALID,93.356,VALID,0,VALID,23.2329,VALID,87,VALID,0.948828,
2011-06-11, 03:14:04,VALID,998.045,VALID,0,VALID,93.3484,VALID,0,VALID,23.2117,VALID,100,VALID,0.761328,
2011-06-11, 03:15:04,VALID,998,VALID,0,VALID,93.3484,VALID,0,VALID,23.2542,VALID,100,VALID,0.657812,
2011-06-11, 03:16:04,VALID,998.043,VALID,0,VALID,93.3179,VALID,0,VALID,23.2329,VALID,100,VALID,0.917969,
2011-06-11, 03:17:04,VALID,998.052,VALID,0,VALID,93.3179,VALID,0,VALID,23.2134,VALID,100,VALID,0.56875,
2011-06-11, 03:18:04,VALID,998.021,VALID,0,VALID,93.2874,VALID,0,VALID,23.2542,VALID,100,VALID,0.457812,
2011-06-11, 03:19:04,VALID,998.029,VALID,0,VALID,93.2874,VALID,0,VALID,23.2347,VALID,100,VALID,0.395312,
2011-06-11, 03:20:04,VALID,998.021,VALID,0,VALID,93.2721,VALID,0,VALID,23.2329,VALID,100,VALID,0.13125,
2011-06-11, 03:21:04,VALID,997.998,VALID,0,VALID,93.2416,VALID,0,VALID,23.2542,VALID,100,VALID,0,
2011-06-11, 03:22:04,VALID,997.979,VALID,0,VALID,93.2111,VALID,0,VALID,23.2329,VALID,100,VALID,0,
2011-06-11, 03:23:04,VALID,997.956,VALID,0,VALID,93.2111,VALID,0,VALID,23.2542,VALID,100,VALID,0,
2011-06-11, 03:24:04,VALID,997.925,VALID,0,VALID,93.1882,VALID,0,VALID,23.2719,VALID,100,VALID,0,
2011-06-11, 03:25:04,VALID,997.901,VALID,0,VALID,93.1577,VALID,0,VALID,23.2932,VALID,109,VALID,0.419141,
2011-06-11, 03:26:04,VALID,997.929,VALID,0,VALID,93.15,VALID,0,VALID,23.2915,VALID,132,VALID,0.726172,
2011-06-11, 03:27:04,VALID,997.94,VALID,0,VALID,93.1271,VALID,0,VALID,23.3127,VALID,132,VALID,0.453906,
2011-06-11, 03:28:04,VALID,997.961,VALID,0,VALID,93.1195,VALID,0,VALID,23.3518,VALID,146,VALID,0.460938,
2011-06-11, 03:29:04,VALID,997.987,VALID,0,VALID,93.0737,VALID,0,VALID,23.3518,VALID,146,VALID,0.417969,
2011-06-11, 03:30:04,VALID,997.974,VALID,0,VALID,93.0432,VALID,0,VALID,23.35,VALID,146,VALID,0.783203,
2011-06-11, 03:31:04,VALID,998.017,VALID,0,VALID,93.028,VALID,0,VALID,23.3695,VALID,146,VALID,0.866797,
2011-06-11, 03:32:04,VALID,998.062,VALID,0,VALID,93.0127,VALID,0,VALID,23.3677,VALID,146,VALID,0.928125,
2011-06-11, 03:33:04,VALID,998.071,VALID,0,VALID,92.9974,VALID,0,VALID,23.4085,VALID,146,VALID,0.724219,
2011-06-11, 03:34:04,VALID,998.099,VALID,0,VALID,92.9669,VALID,0,VALID,23.3677,VALID,146,VALID,0.55625,
2011-06-11, 03:35:04,VALID,998.145,VALID,0,VALID,92.9364,VALID,0,VALID,23.428,VALID,146,VALID,0.451953,
2011-06-11, 03:36:04,VALID,998.14,VALID,0,VALID,92.9211,VALID,0,VALID,23.4085,VALID,146,VALID,0.120703,
2011-06-11, 03:37:04,VALID,998.164,VALID,0,VALID,92.8983,VALID,0,VALID,23.4085,VALID,146,VALID,0,
2011-06-11, 03:38:04,VALID,998.196,VALID,0,VALID,92.8906,VALID,0,VALID,23.3872,VALID,146,VALID,0,
2011-06-11, 03:39:04,VALID,998.199,VALID,0,VALID,92.8906,VALID,0,VALID,23.3695,VALID,146,VALID,0,
2011-06-11, 03:40:04,VALID,998.2,VALID,0,VALID,92.8525,VALID,0,VALID,23.35,VALID,144,VALID,0,
2011-06-11, 03:41:04,VALID,998.176,VALID,0,VALID,92.8525,VALID,0,VALID,23.3695,VALID,133,VALID,0,
2011-06-11, 03:42:04,VALID,998.179,VALID,0,VALID,92.8296,VALID,0,VALID,23.35,VALID,128,VALID,0,
2011-06-11, 03:43:04,VALID,998.168,VALID,0,VALID,92.7685,VALID,0,VALID,23.35,VALID,127,VALID,0,
2011-06-11, 03:44:04,VALID,998.203,VALID,0,VALID,92.7228,VALID,0,VALID,23.35,VALID,127,VALID,0,
2011-06-11, 03:45:04,VALID,998.208,VALID,0,VALID,92.6846,VALID,0,VALID,23.3695,VALID,133,VALID,0.0167969,
2011-06-11, 03:46:04,VALID,998.196,VALID,0,VALID,92.6388,VALID,0,VALID,23.3695,VALID,130,VALID,1.35117,
2011-06-11, 03:47:04,VALID,998.219,VALID,0,VALID,92.5854,VALID,0,VALID,23.389,VALID,131,VALID,1.43281,